When you browse on this site, cookies collect data to enhance your experience and personalize the content and advertising you see.
Visit our Privacy Policy to learn more. By continuing to use the site, you agree to this use of cookies and data.
  • In Portugal
  • List of Countries
  • For 7 days
  • Water Temperature
  • Satellite Maps
  • Weather Map
  • Weather Widgets
  • user-avatar
    Login

    Hourly Weather Plociczno

    Today, 19 February, Tuesday

    Time Temperature Precipitation Wind Pressure Humidity
    00:00 0°C° 0 mm 4 mps 749 mmHg 93%
    01:00 0°C° 0 mm 4 mps 748 mmHg 93%
    02:00 0°C° 0 mm 4 mps 748 mmHg 94%
    03:00 0°C° 0 mm 4 mps 747 mmHg 94%
    04:00 0°C° 0 mm 4 mps 746 mmHg 95%
    05:00 -1°C° 0 mm 4 mps 746 mmHg 95%
    06:00 -1°C° 0 mm 4 mps 745 mmHg 94%
    07:00 -1°C° 0 mm 4 mps 745 mmHg 94%
    08:00 -1°C° 0 mm 4 mps 744 mmHg 94%
    09:00 0°C° 0 mm 5 mps 744 mmHg 87%
    10:00 +1°C° 0 mm 5 mps 743 mmHg 81%
    11:00 +3°C° 0 mm 5 mps 743 mmHg 75%
    12:00 +5°C° 0 mm 5 mps 742 mmHg 71%
    13:00 +5°C° 0 mm 6 mps 742 mmHg 66%
    14:00 +7°C° 0 mm 6 mps 741 mmHg 61%
    15:00 +7°C° 0 mm 6 mps 741 mmHg 63%
    16:00 +6°C° 0 mm 5 mps 741 mmHg 64%
    17:00 +6°C° 0 mm 5 mps 741 mmHg 65%
    18:00 +5°C° 0 mm 5 mps 741 mmHg 72%
    19:00 +5°C° 0 mm 5 mps 741 mmHg 78%
    20:00 +4°C° 0 mm 4 mps 740 mmHg 84%
    21:00 +4°C° 0.4 mm 4 mps 740 mmHg 85%
    22:00 +4°C° 0.4 mm 4 mps 740 mmHg 86%
    23:00 +3°C° 0.4 mm 4 mps 740 mmHg 86%

    Tomorrow, 20 February, Wednesday

    Time Temperature Precipitation Wind Pressure Humidity
    00:00 +3°C° 0 mm 4 mps 740 mmHg 87%
    01:00 +2°C° 0 mm 5 mps 740 mmHg 87%
    02:00 +2°C° 0 mm 5 mps 740 mmHg 88%
    03:00 +2°C° 0 mm 6 mps 740 mmHg 87%
    04:00 +2°C° 0 mm 6 mps 740 mmHg 86%
    05:00 +2°C° 0 mm 7 mps 740 mmHg 85%
    06:00 +2°C° 0.1 mm 7 mps 740 mmHg 85%
    07:00 +1°C° 0.1 mm 6 mps 740 mmHg 84%
    08:00 +1°C° 0.1 mm 6 mps 740 mmHg 83%
    09:00 0°C° 0.1 mm 7 mps 740 mmHg 80%
    10:00 +2°C° 0.1 mm 7 mps 741 mmHg 78%
    11:00 +1°C° 0.1 mm 8 mps 741 mmHg 76%
    12:00 +1°C° 0 mm 8 mps 741 mmHg 76%
    13:00 +1°C° 0 mm 8 mps 741 mmHg 76%
    14:00 +1°C° 0 mm 8 mps 741 mmHg 77%
    15:00 +1°C° 0 mm 8 mps 742 mmHg 76%
    16:00 +1°C° 0 mm 8 mps 742 mmHg 76%
    17:00 +1°C° 0 mm 8 mps 742 mmHg 75%
    18:00 0°C° 0 mm 8 mps 743 mmHg 74%
    19:00 -2°C° 0 mm 7 mps 744 mmHg 72%
    20:00 -3°C° 0 mm 6 mps 745 mmHg 70%
    21:00 -3°C° 0 mm 6 mps 745 mmHg 70%
    22:00 -4°C° 0 mm 5 mps 746 mmHg 70%
    23:00 -4°C° 0 mm 5 mps 746 mmHg 70%

    Day after tomorrow, 21 February, Thursday

    Time Temperature Precipitation Wind Pressure Humidity
    00:00 -4°C° 0 mm 5 mps 747 mmHg 69%
    01:00 -3°C° 0 mm 4 mps 747 mmHg 69%
    02:00 -3°C° 0 mm 4 mps 747 mmHg 68%
    03:00 -3°C° 0 mm 4 mps 747 mmHg 68%
    04:00 -3°C° 0 mm 4 mps 747 mmHg 68%
    05:00 -3°C° 0 mm 4 mps 748 mmHg 68%
    06:00 -2°C° 0 mm 3 mps 748 mmHg 68%
    07:00 -2°C° 0 mm 3 mps 748 mmHg 68%
    08:00 -2°C° 0 mm 3 mps 748 mmHg 68%
    09:00 -2°C° 0 mm 2 mps 748 mmHg 64%
    10:00 -1°C° 0 mm 2 mps 748 mmHg 61%
    11:00 -1°C° 0 mm 2 mps 748 mmHg 58%
    12:00 -1°C° 0 mm 2 mps 748 mmHg 57%
    13:00 +2°C° 0 mm 1 mps 748 mmHg 56%
    14:00 +2°C° 0 mm 1 mps 748 mmHg 55%
    15:00 +2°C° 0 mm 1 mps 748 mmHg 56%
    16:00 +1°C° 0 mm 1 mps 748 mmHg 57%
    17:00 +1°C° 0 mm 1 mps 747 mmHg 58%
    18:00 -1°C° 0 mm 2 mps 748 mmHg 56%
    19:00 -1°C° 0 mm 3 mps 748 mmHg 54%
    20:00 -3°C° 0 mm 4 mps 748 mmHg 52%
    21:00 -3°C° 0 mm 4 mps 749 mmHg 55%
    22:00 -4°C° 0 mm 4 mps 749 mmHg 57%
    23:00 -4°C° 0 mm 4 mps 750 mmHg 59%

    22 February, Friday

    Time Temperature Precipitation Wind Pressure Humidity
    00:00 -4°C° 0 mm 4 mps 750 mmHg 59%
    01:00 -5°C° 0 mm 4 mps 751 mmHg 59%
    02:00 -5°C° 0 mm 4 mps 752 mmHg 58%
    03:00 -6°C° 0 mm 5 mps 753 mmHg 60%
    04:00 -7°C° 0 mm 5 mps 754 mmHg 61%
    05:00 -7°C° 0 mm 5 mps 754 mmHg 62%
    06:00 -8°C° 0 mm 5 mps 755 mmHg 61%
    07:00 -8°C° 0 mm 5 mps 756 mmHg 61%
    08:00 -10°C° 0 mm 5 mps 757 mmHg 61%
    09:00 -8°C° 0 mm 5 mps 758 mmHg 57%
    10:00 -8°C° 0 mm 5 mps 759 mmHg 52%
    11:00 -7°C° 0 mm 5 mps 760 mmHg 48%
    12:00 -7°C° 0 mm 4 mps 760 mmHg 44%
    13:00 -5°C° 0 mm 4 mps 761 mmHg 41%
    14:00 -4°C° 0 mm 3 mps 761 mmHg 37%
    15:00 -4°C° 0 mm 3 mps 761 mmHg 38%
    16:00 -4°C° 0 mm 3 mps 761 mmHg 38%
    17:00 -5°C° 0 mm 3 mps 761 mmHg 39%
    18:00 -5°C° 0 mm 3 mps 762 mmHg 40%
    19:00 -6°C° 0 mm 3 mps 762 mmHg 42%
    20:00 -6°C° 0 mm 3 mps 762 mmHg 43%
    21:00 -6°C° 0 mm 3 mps 762 mmHg 43%
    22:00 -6°C° 0 mm 3 mps 762 mmHg 43%
    23:00 -6°C° 0 mm 3 mps 762 mmHg 43%

    23 February, Saturday

    Time Temperature Precipitation Wind Pressure Humidity
    00:00 -7°C° 0 mm 3 mps 762 mmHg 46%
    01:00 -7°C° 0 mm 3 mps 762 mmHg 49%
    02:00 -7°C° 0 mm 3 mps 762 mmHg 52%
    03:00 -7°C° 0 mm 3 mps 762 mmHg 54%
    04:00 -8°C° 0 mm 3 mps 762 mmHg 57%
    05:00 -8°C° 0 mm 3 mps 762 mmHg 59%
    06:00 -8°C° 0 mm 3 mps 762 mmHg 61%
    07:00 -7°C° 0 mm 2 mps 762 mmHg 62%
    08:00 -7°C° 0 mm 2 mps 762 mmHg 64%
    09:00 -6°C° 0 mm 2 mps 762 mmHg 60%
    10:00 -5°C° 0 mm 2 mps 762 mmHg 56%
    11:00 -2°C° 0 mm 1 mps 762 mmHg 52%
    12:00 -2°C° 0 mm 1 mps 762 mmHg 48%
    13:00 -1°C° 0 mm 1 mps 762 mmHg 45%
    14:00 -1°C° 0 mm 1 mps 762 mmHg 42%
    15:00 -1°C° 0 mm 1 mps 761 mmHg 43%
    16:00 -3°C° 0 mm 2 mps 761 mmHg 43%
    17:00 -3°C° 0 mm 2 mps 761 mmHg 44%
    18:00 -3°C° 0.1 mm 2 mps 761 mmHg 54%
    19:00 -2°C° 0.1 mm 1 mps 761 mmHg 64%
    20:00 -2°C° 0.1 mm 1 mps 761 mmHg 74%
    21:00 -2°C° 0 mm 1 mps 761 mmHg 75%
    22:00 -2°C° 0 mm 1 mps 761 mmHg 76%
    23:00 -2°C° 0 mm 1 mps 761 mmHg 77%

    24 February, Sunday

    Time Temperature Precipitation Wind Pressure Humidity
    00:00 -3°C° 0 mm 1 mps 761 mmHg 78%
    01:00 -3°C° 0 mm 1 mps 761 mmHg 79%
    02:00 -3°C° 0 mm 1 mps 761 mmHg 79%
    03:00 -3°C° 0 mm 1 mps 761 mmHg 80%
    04:00 -3°C° 0 mm 1 mps 761 mmHg 81%
    05:00 -3°C° 0 mm 1 mps 761 mmHg 82%
    06:00 -3°C° 0 mm 1 mps 762 mmHg 83%
    07:00 -3°C° 0 mm 1 mps 762 mmHg 83%
    08:00 -3°C° 0 mm 1 mps 762 mmHg 84%
    09:00 -2°C° 0 mm 1 mps 762 mmHg 78%
    10:00 -3°C° 0 mm 2 mps 763 mmHg 73%
    11:00 -1°C° 0 mm 2 mps 763 mmHg 68%
    12:00 -1°C° 0 mm 2 mps 763 mmHg 66%
    13:00 +1°C° 0 mm 2 mps 763 mmHg 64%
    14:00 +2°C° 0 mm 2 mps 762 mmHg 62%
    15:00 +2°C° 0 mm 2 mps 762 mmHg 66%
    16:00 +1°C° 0 mm 2 mps 762 mmHg 69%
    17:00 +1°C° 0 mm 2 mps 762 mmHg 73%
    18:00 +1°C° 0 mm 2 mps 761 mmHg 77%
    19:00 -1°C° 0 mm 2 mps 761 mmHg 81%
    20:00 -2°C° 0 mm 2 mps 761 mmHg 85%
    21:00 -1°C° 0 mm 2 mps 761 mmHg 85%
    22:00 -1°C° 0 mm 3 mps 761 mmHg 84%
    23:00 -1°C° 0 mm 3 mps 761 mmHg 84%
    Show more